This is the latest recevied weather packets stored in our database for station/object E25HML-13. If no packets are shown the sender has not sent any weather packets the latest 1 day(s).
| Time | Temp. | Humidity | Pressure | Rain* | Wind** | Luminosity | Snow |
|---|---|---|---|---|---|---|---|
| 1778075019 | 35° C | 60% | 1003.7 hPa | - | - | - | - |
| 1778073219 | 35.56° C | 59% | 1003 hPa | - | - | - | - |
| 1778072620 | 35.56° C | 59% | 1002.8 hPa | - | - | - | - |
| 1778071724 | 35° C | 57% | 1002.7 hPa | - | - | - | - |
| 1778070819 | 35° C | 58% | 1002.1 hPa | - | - | - | - |
| 1778069919 | 35.56° C | 58% | 1002 hPa | - | - | - | - |
| 1778069019 | 35.56° C | 57% | 1001.9 hPa | - | - | - | - |
| 1778067819 | 35.56° C | 57% | 1001.9 hPa | - | - | - | - |
| 1778066619 | 35.56° C | 56% | 1001.8 hPa | - | - | - | - |
| 1778065419 | 35° C | 57% | 1001.8 hPa | - | - | - | - |
| 1778063318 | 35° C | 59% | 1001.7 hPa | - | - | - | - |
| 1778063020 | 35° C | 59% | 1001.6 hPa | - | - | - | - |
| 1778062718 | 35° C | 59% | 1001.6 hPa | - | - | - | - |
| 1778059718 | 33.89° C | 59% | 1001.6 hPa | - | - | - | - |
| 1778058818 | 33.33° C | 59% | 1001.7 hPa | - | - | - | - |
| 1778058518 | 33.33° C | 59% | 1001.9 hPa | - | - | - | - |
| 1778057918 | 32.78° C | 60% | 1002 hPa | - | - | - | - |
| 1778057618 | 30.56° C | 62% | 1002 hPa | - | - | - | - |
| 1778057318 | 30° C | 61% | 1002.1 hPa | - | - | - | - |
| 1778057018 | 30° C | 61% | 1002.3 hPa | - | - | - | - |
| 1778056718 | 30° C | 61% | 1002.4 hPa | - | - | - | - |
| 1778056118 | 30° C | 61% | 1002.6 hPa | - | - | - | - |
| 1778055818 | 30° C | 61% | 1002.8 hPa | - | - | - | - |
| 1778055518 | 30° C | 61% | 1002.8 hPa | - | - | - | - |
| 1778055218 | 30° C | 62% | 1002.7 hPa | - | - | - | - |
* Rain since midnight (hover to see other rain measurements)
** Current wind speed in m/s (hover to see current wind gust speed)